This is the latest recevied weather packets stored in our database for station/object KC0QBU-13. If no packets are shown the sender has not sent any weather packets the latest 10 day(s).
| Time | Temp. | Humidity | Pressure | Rain* | Wind** | Luminosity | Snow |
|---|---|---|---|---|---|---|---|
| 1777927762 | 27.78° C | 39% | 1004.5 hPa | 0 mm | - | - | - |
| 1777927462 | 27.78° C | 38% | 1004.6 hPa | 0 mm | - | - | - |
| 1777927132 | 28.33° C | 40% | 1004.6 hPa | 0 mm | - | - | - |
| 1777926832 | 28.33° C | 40% | 1004.6 hPa | 0 mm | - | - | - |
| 1777926532 | 28.33° C | 39% | 1004.6 hPa | 0 mm | - | - | - |
| 1777926202 | 28.89° C | 39% | 1004.5 hPa | 0 mm | - | - | - |
| 1777925902 | 28.33° C | 38% | 1004.6 hPa | 0 mm | - | - | - |
| 1777925603 | 28.33° C | 38% | 1004.6 hPa | 0 mm | - | - | - |
| 1777925303 | 28.33° C | 38% | 1004.7 hPa | 0 mm | - | - | - |
| 1777925003 | 28.33° C | 38% | 1004.7 hPa | 0 mm | - | - | - |
| 1777924703 | 28.33° C | 40% | 1004.8 hPa | 0 mm | - | - | - |
| 1777924372 | 28.89° C | 39% | 1004.7 hPa | 0 mm | - | - | - |
| 1777924072 | 28.89° C | 43% | 1004.7 hPa | 0 mm | - | - | - |
| 1777923742 | 28.33° C | 43% | 1004.8 hPa | 0 mm | - | - | - |
| 1777923442 | 28.33° C | 43% | 1004.7 hPa | 0 mm | - | - | - |
| 1777923142 | 28.33° C | 41% | 1004.8 hPa | 0 mm | - | - | - |
| 1777922812 | 28.33° C | 42% | 1004.8 hPa | 0 mm | - | - | - |
| 1777922512 | 28.33° C | 40% | 1004.8 hPa | 0 mm | - | - | - |
| 1777922182 | 27.78° C | 40% | 1004.7 hPa | 0 mm | - | - | - |
| 1777921852 | 27.78° C | 39% | 1004.8 hPa | 0 mm | - | - | - |
| 1777921552 | 27.78° C | 40% | 1004.8 hPa | 0 mm | - | - | - |
| 1777921252 | 27.78° C | 41% | 1005 hPa | 0 mm | - | - | - |
| 1777920952 | 27.22° C | 45% | 1004.9 hPa | 0 mm | - | - | - |
| 1777920652 | 27.22° C | 44% | 1005 hPa | 0 mm | - | - | - |
| 1777920322 | 27.22° C | 44% | 1004.9 hPa | 0 mm | - | - | - |
* Rain latest hour (hover to see other rain measurements)
** Current wind speed in m/s (hover to see current wind gust speed)